Latest Weather Observations for Albion Park

IDN60801

Issued at 1:03 pm EST Monday 25 May 2015 (issued every 30 minutes, with the page automatically refreshed every 10 minutes)

About weather observations | Map of weather stations | Latest weather observations for NSW | Other Formats
Station Details ID: 068241 Name: WOLLONGONG AIRPORT Lat: -34.56 Lon: 150.79 Height: 8.0 m
Data from the previous 72 hours. | See also: Recent months at Albion Park
Date/Time
EST
Temp
°C
App
Temp
°C
Dew
Point
Rel
Hum
%
Delta-T
°C
Wind Press
QNH
hPa
Press
MSL
hPa
Rain
since 9 am
mm
Dir
 
Spd
km/h
Gust
km/h
Spd
kts
Gust
kts
25/01:00pm 19.3 17.0 8.9 51 5.4 NE 11 15 6 8 1028.5 1028.5 0.0
25/12:30pm 19.0 16.2 8.4 50 5.4 ENE 13 15 7 8 1028.9 1028.9 0.0
25/12:00pm 19.4 16.3 7.2 45 6.1 N 13 15 7 8 1029.1 1029.1 0.0
25/11:00am 18.7 17.3 9.5 55 4.8 NE 7 11 4 6 1030.4 1030.4 0.0
25/10:30am 18.0 16.5 8.6 54 4.9 N 6 9 3 5 1030.8 1030.8 0.0
25/10:00am 17.1 17.6 11.6 70 3.0 CALM 0 6 0 3 1031.3 1031.3 0.0
25/09:30am 14.7 15.1 11.1 79 1.9 CALM 0 6 0 3 1031.4 1031.4 0.0
25/09:00am 12.3 12.3 11.2 93 0.6 WNW 2 9 1 5 1031.3 1031.3 0.0
25/08:30am 10.5 9.3 10.3 99 0.1 W 7 11 4 6 1031.3 1031.3 0.0
25/08:00am 8.7 8.4 8.6 99 0.0 CALM 0 0 0 0 1031.3 1031.3 0.0
25/07:30am 7.9 7.4 7.8 99 0.0 CALM 0 0 0 0 1031.3 1031.3 0.0
25/07:00am 7.4 6.8 7.3 99 0.0 CALM 0 0 0 0 1031.2 1031.2 0.0
25/06:30am 7.1 6.4 7.0 99 0.0 CALM 0 0 0 0 1030.9 1030.9 0.0
25/06:00am 6.8 6.0 6.7 99 0.0 CALM 0 4 0 2 1031.0 1031.0 0.0
25/05:30am 6.4 4.8 6.3 99 0.0 WSW 4 7 2 4 1030.8 1030.8 0.0
25/05:00am 6.5 5.7 6.4 99 0.0 CALM 0 6 0 3 1030.8 1030.8 0.0
25/04:30am 6.2 4.9 6.1 99 0.0 WSW 2 7 1 4 1030.7 1030.7 0.0
25/04:00am 5.7 4.3 5.6 99 0.0 WSW 2 7 1 4 1030.9 1030.9 0.0
25/03:30am 6.1 4.4 6.0 99 0.0 WSW 4 7 2 4 1030.9 1030.9 0.0
25/03:00am 6.8 5.7 6.7 99 0.0 WSW 2 7 1 4 1031.1 1031.1 0.0
25/02:30am 6.2 4.2 6.1 99 0.0 WSW 6 9 3 5 1031.4 1031.4 0.0
25/02:00am 6.1 5.2 6.0 99 0.0 CALM 0 0 0 0 1031.6 1031.6 0.0
25/01:30am 6.1 4.8 6.0 99 0.0 W 2 9 1 5 1031.7 1031.7 0.0
25/01:00am 6.2 5.3 5.9 98 0.1 CALM 0 0 0 0 1031.7 1031.7 0.0
25/12:30am 6.4 5.1 6.1 98 0.1 W 2 6 1 3 1031.9 1031.9 0.0
25/12:00am 6.5 4.5 6.1 97 0.2 W 6 9 3 5 1032.1 1032.1 0.0
 
Date/Time
EST
Temp
°C
App
Temp
°C
Dew
Point
Rel
Hum
%
Delta-T
°C
Wind Press
QNH
hPa
Press
MSL
hPa
Rain
since 9 am
mm
Dir
 
Spd
km/h
Gust
km/h
Spd
kts
Gust
kts
24/11:30pm 6.9 5.3 6.5 97 0.2 W 4 7 2 4 1032.2 1032.2 0.0
24/11:00pm 7.3 6.6 7.0 98 0.1 CALM 0 0 0 0 1032.3 1032.3 0.0
24/10:30pm 7.5 5.5 7.2 98 0.1 W 7 11 4 6 1032.5 1032.5 0.0
24/10:00pm 7.0 5.0 6.4 96 0.3 W 6 9 3 5 1032.4 1032.4 0.0
24/09:30pm 7.7 6.7 7.3 97 0.2 W 2 9 1 5 1032.2 1032.2 0.0
24/09:00pm 7.9 5.9 7.3 96 0.3 W 7 9 4 5 1032.2 1032.2 0.0
24/08:30pm 8.2 6.4 7.3 94 0.4 W 6 7 3 4 1032.2 1032.2 0.0
24/08:00pm 8.7 6.8 7.6 93 0.5 WNW 7 7 4 4 1032.1 1032.1 0.0
24/07:30pm 8.9 6.7 7.8 93 0.5 W 9 13 5 7 1031.9 1031.9 0.0
24/07:00pm 9.9 7.5 8.7 92 0.6 W 11 15 6 8 1031.8 1031.8 0.0
24/06:30pm 9.9 8.2 8.5 91 0.7 W 7 9 4 5 1031.9 1031.9 0.0
24/06:00pm 10.5 8.6 8.9 90 0.8 W 9 11 5 6 1031.8 1031.8 0.0
24/05:30pm 11.8 10.4 9.5 86 1.2 WNW 7 9 4 5 1031.4 1031.4 0.0
24/05:00pm 12.5 10.2 9.1 80 1.7 W 11 13 6 7 1031.3 1031.3 0.0
24/04:30pm 16.7 15.5 9.6 63 3.7 NNE 6 7 3 4 1031.0 1031.0 0.0
24/04:00pm 17.3 15.4 7.6 53 4.8 NNE 7 9 4 5 1030.6 1030.6 0.0
24/03:30pm 17.8 15.8 7.0 49 5.4 NE 7 9 4 5 1030.5 1030.5 0.0
24/03:00pm 18.0 16.0 7.1 49 5.4 NE 7 11 4 6 1030.6 1030.6 0.0
24/02:30pm 18.3 16.4 7.7 50 5.4 NE 7 11 4 6 1030.8 1030.8 0.0
24/02:00pm 17.9 15.6 7.3 50 5.3 NE 9 13 5 7 1030.8 1030.8 0.0
24/01:30pm 18.0 15.2 7.1 49 5.5 ENE 11 13 6 7 1030.7 1030.7 0.0
24/01:00pm 18.1 15.3 8.4 53 5.0 NE 13 15 7 8 1030.8 1030.8 0.0
24/12:30pm 17.9 15.5 7.0 49 5.4 E 9 13 5 7 1031.1 1031.1 0.0
24/12:00pm 18.0 16.2 8.0 52 5.1 NNE 7 15 4 8 1031.5 1031.5 0.0
24/11:30am 17.4 15.8 8.0 54 4.8 S 6 11 3 6 1031.9 1031.9 0.0
24/11:00am 16.9 15.1 8.1 56 4.4 S 7 11 4 6 1032.1 1032.1 0.0
24/10:30am 16.5 15.2 7.7 56 4.4 SW 4 13 2 7 1032.4 1032.4 0.0
24/10:00am 16.6 16.8 10.5 67 3.2 CALM 0 0 0 0 1032.6 1032.6 0.0
24/09:30am 14.3 14.4 10.3 77 2.1 CALM 0 0 0 0 1032.5 1032.5 0.0
24/09:00am 11.7 12.1 11.4 98 0.2 CALM 0 0 0 0 1032.4 1032.4 0.0
24/08:30am 9.6 9.5 9.5 99 0.0 CALM 0 0 0 0 1032.3 1032.3 0.0
24/08:00am 8.3 6.6 8.2 99 0.0 SW 7 9 4 5 1031.9 1031.9 0.0
24/07:30am 7.3 5.3 7.0 98 0.1 WSW 7 11 4 6 1031.4 1031.4 0.0
24/07:00am 7.2 4.8 6.9 98 0.1 WSW 9 11 5 6 1031.0 1031.0 0.0
24/06:30am 7.2 5.1 6.8 97 0.2 WSW 7 7 4 4 1030.9 1030.9 0.0
24/06:00am 7.8 5.0 7.1 95 0.3 WSW 11 13 6 7 1030.6 1030.6 0.0
24/05:30am 8.3 6.6 7.4 94 0.4 W 6 9 3 5 1030.3 1030.3 0.0
24/05:00am 8.3 6.3 7.2 93 0.5 SW 7 9 4 5 1030.1 1030.1 0.0
24/04:30am 8.5 5.1 7.7 95 0.4 WSW 15 19 8 10 1030.0 1030.0 0.0
24/04:00am 7.6 4.8 6.9 95 0.3 WSW 11 13 6 7 1029.9 1029.9 0.0
24/03:30am 7.5 4.7 6.9 96 0.3 WSW 11 11 6 6 1029.7 1029.7 0.0
24/03:00am 7.3 4.1 6.9 97 0.2 WSW 13 15 7 8 1029.8 1029.8 0.0
24/02:30am 7.1 4.7 7.0 99 0.0 W 9 11 5 6 1029.8 1029.8 0.0
24/02:00am 6.6 4.0 6.3 98 0.1 W 9 9 5 5 1030.0 1030.0 0.0
24/01:30am 6.5 3.9 5.9 96 0.3 W 9 11 5 6 1029.9 1029.9 0.0
24/01:00am 7.3 4.4 6.7 96 0.3 W 11 13 6 7 1029.9 1029.9 0.0
24/12:30am 6.8 4.6 6.2 96 0.3 WSW 7 11 4 6 1029.9 1029.9 0.0
24/12:00am 7.3 4.4 6.7 96 0.3 WSW 11 13 6 7 1029.9 1029.9 0.0
 
Date/Time
EST
Temp
°C
App
Temp
°C
Dew
Point
Rel
Hum
%
Delta-T
°C
Wind Press
QNH
hPa
Press
MSL
hPa
Rain
since 9 am
mm
Dir
 
Spd
km/h
Gust
km/h
Spd
kts
Gust
kts
23/11:30pm 7.6 5.4 6.1 90 0.7 SW 7 9 4 5 1030.0 1030.0 0.0
23/11:00pm 8.6 4.9 7.8 95 0.4 WSW 17 20 9 11 1029.9 1029.9 0.0
23/10:30pm 7.8 4.6 6.9 94 0.4 W 13 15 7 8 1029.9 1029.9 0.0
23/10:00pm 8.3 5.6 7.2 93 0.5 W 11 15 6 8 1030.0 1030.0 0.0
23/09:30pm 8.2 5.8 7.0 92 0.6 W 9 13 5 7 1030.1 1030.1 0.0
23/09:00pm 8.4 5.7 7.5 94 0.4 W 11 13 6 7 1030.2 1030.2 0.0
23/08:30pm 8.8 6.1 7.4 91 0.7 WSW 11 13 6 7 1030.3 1030.3 0.0
23/08:00pm 9.2 7.0 7.8 91 0.7 W 9 13 5 7 1030.2 1030.2 0.0
23/07:30pm 9.2 7.0 8.0 92 0.6 WSW 9 15 5 8 1030.1 1030.1 0.0
23/07:00pm 9.4 6.2 8.5 94 0.4 W 15 19 8 10 1030.0 1030.0 0.0
23/06:30pm 10.0 8.0 8.6 91 0.7 W 9 13 5 7 1029.8 1029.8 0.0
23/06:00pm 10.6 8.5 8.2 85 1.2 SW 9 9 5 5 1029.7 1029.7 0.0
23/05:30pm 12.4 9.9 8.3 76 2.0 SSW 11 13 6 7 1029.3 1029.3 0.0
23/05:00pm 13.8 11.0 8.6 71 2.6 SSE 13 20 7 11 1029.1 1029.1 0.0
23/04:30pm 14.6 11.7 8.3 66 3.2 SSE 13 20 7 11 1029.0 1029.0 0.0
23/04:00pm 15.5 12.5 9.2 66 3.2 SSE 15 24 8 13 1028.9 1028.9 0.0
23/03:30pm 16.0 13.2 8.7 62 3.7 SE 13 19 7 10 1028.6 1028.6 0.0
23/03:00pm 16.6 14.2 8.6 59 4.1 S 11 17 6 9 1028.4 1028.4 0.0
23/02:30pm 16.6 14.0 7.8 56 4.4 SSE 11 17 6 9 1028.3 1028.3 0.0
23/02:00pm 16.5 12.7 7.4 55 4.5 SSE 17 20 9 11 1028.4 1028.4 0.0
23/01:30pm 16.8 13.7 7.2 53 4.8 WSW 13 19 7 10 1028.6 1028.6 0.0
23/01:00pm 16.4 13.1 7.9 57 4.3 SSW 15 22 8 12 1028.6 1028.6 0.0
23/12:30pm 16.7 12.7 8.1 57 4.4 SW 19 26 10 14 1028.7 1028.7 0.0
23/12:00pm 16.2 11.9 7.7 57 4.2 SW 20 28 11 15 1028.9 1028.9 0.0
23/11:30am 16.2 11.9 7.7 57 4.3 SSW 20 30 11 16 1029.4 1029.4 0.0
23/11:00am 15.8 11.6 8.1 60 3.8 SSW 20 26 11 14 1029.7 1029.7 0.0
23/10:30am 15.6 11.9 7.9 60 3.9 SW 17 28 9 15 1029.9 1029.9 0.0
23/10:00am 15.1 11.3 7.4 60 3.8 SW 17 26 9 14 1029.9 1029.9 0.0
23/09:30am 15.2 10.4 7.5 60 3.8 SW 22 30 12 16 1029.6 1029.6 0.0
23/09:00am 14.1 10.0 7.9 66 3.1 WSW 19 24 10 13 1029.4 1029.4 9.8
23/08:30am 12.9 7.6 6.7 66 3.0 WSW 24 32 13 17 1029.2 1029.2 9.8
23/08:00am 12.0 8.0 6.5 69 2.6 WSW 17 22 9 12 1029.1 1029.1 9.8
23/07:30am 11.3 6.8 6.0 70 2.5 W 19 28 10 15 1028.8 1028.8 9.8
23/07:00am 10.9 6.4 5.9 71 2.3 W 19 26 10 14 1028.5 1028.5 9.8
23/06:30am 10.9 6.7 5.9 71 2.3 WSW 17 24 9 13 1028.3 1028.3 9.8
23/06:00am 11.6 6.9 6.1 69 2.6 WSW 20 32 11 17 1028.0 1028.0 9.8
23/05:30am 11.6 7.1 6.1 69 2.6 WSW 19 28 10 15 1027.6 1027.6 9.8
23/05:00am 11.5 7.0 6.0 69 2.5 SW 19 28 10 15 1027.5 1027.5 9.8
23/04:30am 11.5 6.8 6.2 70 2.5 WSW 20 28 11 15 1027.5 1027.5 9.8
23/04:00am 12.6 6.9 6.6 67 2.8 WSW 26 37 14 20 1027.3 1027.3 9.8
23/03:30am 12.9 8.5 6.7 66 3.0 SW 19 35 10 19 1027.3 1027.3 9.8
23/03:00am 12.8 8.0 7.3 69 2.6 SW 22 32 12 17 1027.3 1027.3 9.8
23/02:43am 13.1 6.8 7.3 68 2.8 SW 30 48 16 26 1027.3 1027.3 9.8
23/02:30am 13.2 7.3 7.4 68 2.8 SW 28 43 15 23 1027.4 1027.4 9.8
23/02:06am 13.0 7.1 7.7 70 2.6 SW 28 48 15 26 1027.2 1027.2 9.8
23/02:00am 12.9 7.5 7.8 71 2.5 SW 26 43 14 23 1027.3 1027.3 9.8
23/01:30am 12.9 8.8 7.8 71 2.5 SW 19 32 10 17 1027.2 1027.2 9.8
23/01:00am 13.0 7.7 8.3 73 2.3 SW 26 39 14 21 1027.1 1027.1 9.8
23/12:30am 12.9 7.6 8.6 75 2.1 SW 26 43 14 23 1027.0 1027.0 9.8
23/12:12am 12.6 7.9 9.4 81 1.6 SSW 24 37 13 20 1027.1 1027.1 9.8
23/12:00am 12.4 7.0 9.4 82 1.5 SSW 28 39 15 21 1027.1 1027.1 9.8
 
Date/Time
EST
Temp
°C
App
Temp
°C
Dew
Point
Rel
Hum
%
Delta-T
°C
Wind Press
QNH
hPa
Press
MSL
hPa
Rain
since 9 am
mm
Dir
 
Spd
km/h
Gust
km/h
Spd
kts
Gust
kts
22/11:52pm 12.4 7.0 9.4 82 1.5 SW 28 46 15 25 1027.2 1027.2 9.8
22/11:45pm 12.1 8.3 9.8 86 1.2 SSW 20 32 11 17 1027.2 1027.2 9.8
22/11:39pm 12.2 8.0 9.9 86 1.2 SSW 22 32 12 17 1027.2 1027.2 9.8
22/11:30pm 12.3 7.8 10.2 87 1.1 SSW 24 33 13 18 1027.3 1027.3 9.8
22/11:06pm 12.4 9.1 10.8 90 0.8 SSW 19 28 10 15 1027.1 1027.1 9.8
22/11:00pm 12.3 8.8 10.9 91 0.7 SSW 20 33 11 18 1027.0 1027.0 9.8
22/10:50pm 12.4 8.6 11.0 91 0.7 SSW 22 35 12 19 1027.0 1027.0 9.8
22/10:38pm 12.7 9.8 10.9 89 0.9 SSW 17 30 9 16 1027.1 1027.1 9.4
22/10:30pm 12.8 8.9 10.9 88 1.0 SSW 22 32 12 17 1027.0 1027.0 9.4
22/10:00pm 13.0 9.1 10.9 87 1.1 SSW 22 33 12 18 1026.9 1026.9 9.4
22/09:30pm 13.1 9.8 10.8 86 1.2 SSW 19 28 10 15 1026.5 1026.5 9.4
22/09:00pm 13.3 9.9 10.5 83 1.4 SSW 19 28 10 15 1026.2 1026.2 9.4
22/08:30pm 13.4 9.4 10.4 82 1.6 SSW 22 32 12 17 1026.1 1026.1 9.4
22/08:00pm 13.2 9.3 10.7 85 1.3 SSW 22 35 12 19 1026.0 1026.0 9.4
22/07:30pm 13.1 8.7 10.5 84 1.4 SSW 24 33 13 18 1025.7 1025.7 9.4
22/07:00pm 13.8 7.7 9.8 77 2.0 SSW 32 57 17 31 1025.4 1025.4 9.4
22/06:54pm 13.5 8.3 10.3 81 1.7 SSW 28 46 15 25 1025.3 1025.3 9.4
22/06:30pm 13.4 9.4 10.4 82 1.6 SSW 22 35 12 19 1024.9 1024.9 9.4
22/06:00pm 13.2 10.0 11.4 89 0.9 SSW 19 28 10 15 1024.8 1024.8 9.4
22/05:30pm 13.5 10.8 10.5 82 1.6 S 15 28 8 15 1024.2 1024.2 9.2
22/05:00pm 13.2 9.3 10.7 85 1.3 S 22 35 12 19 1023.7 1023.7 9.2
22/04:30pm 13.2 9.6 10.7 85 1.3 S 20 32 11 17 1023.4 1023.4 9.0
22/04:18pm 13.2 7.7 10.6 84 1.4 S 30 50 16 27 1023.5 1023.5 9.0
22/04:17pm 13.1 8.0 10.6 85 1.3 S 28 50 15 27 1023.5 1023.5 9.0
22/04:06pm 13.2 10.5 11.8 91 0.7 SSE 17 33 9 18 1023.3 1023.3 9.0
22/04:00pm 13.3 11.0 11.7 90 0.8 SSE 15 32 8 17 1023.3 1023.3 9.0
22/03:36pm 13.2 7.9 11.3 88 1.0 S 30 43 16 23 1022.7 1022.7 9.0
22/03:34pm 13.1 7.2 11.2 88 1.0 S 33 48 18 26 1022.6 1022.6 9.0
22/03:30pm 13.0 6.8 11.4 90 0.8 S 35 48 19 26 1022.6 1022.6 9.0
22/03:25pm 12.9 7.7 11.5 91 0.7 S 30 48 16 26 1022.8 1022.8 9.0
22/03:14pm 13.2 9.6 11.8 91 0.7 SSE 22 35 12 19 1022.6 1022.6 8.6
22/03:13pm 13.2 9.6 11.8 91 0.7 SSE 22 37 12 20 1022.6 1022.6 8.6
22/03:00pm 13.6 9.5 11.5 87 1.1 S 24 39 13 21 1022.4 1022.4 8.4
22/02:30pm 13.7 8.2 11.9 89 1.0 S 32 44 17 24 1022.0 1022.0 8.2
22/02:00pm 14.5 9.3 11.6 83 1.5 S 30 48 16 26 1021.7 1021.7 7.8
22/01:30pm 14.4 9.3 11.9 85 1.3 S 30 50 16 27 1021.6 1021.6 7.8
22/01:04pm 13.6 6.6 11.1 85 1.3 S 39 57 21 31 1021.7 1021.7 7.8

Other Formats:

Comma delimited format used in spreadsheet applications
http://www.bom.gov.au/fwo/IDN60801/IDN60801.95748.axf

JavaScript Object Notation format (JSON) in row-major order
http://www.bom.gov.au/fwo/IDN60801/IDN60801.95748.json